Back to catalog

CZ-4 DEB

AlivePO
NORAD 20886·DEBRIS·🇨🇳 China

Launched Sep 3, 1990 from Taiyuan Satellite Launch Center

Loading…

Next Passes (next 24 hours)

TLE

FreshSource: Space-Track

Epoch: Sep 14, 2026, 05:21 UTC

1 20886U 90081AW  26257.22323348  .00000204  00000-0  29119-3 0  9992
2 20886  99.0343  31.1488 0242019 250.5924 231.0863 13.55792618774439

Track CZ-4 DEB in real time with AllMySat

Download on the App Store